Regional Weather Roundup
Issued by NWS Upton, NY

Current Version | Previous Version | Text Only | Print | Product List | Glossary On
Versions: 1 2 3 4 5 6 7 8 9 10 11 12 13 14 15 16 17 18 19 20 21 22 23 24 25 26 27 28 29 30 31 32 33 34 35 36 37 38 39 40 41 42 43 44 45 46 47 48 49 50
000
ASUS41 KOKX 240205
RWROKX

REGIONAL WEATHER ROUNDUP
NATIONAL WEATHER SERVICE NEW YORK NY
900 PM EST TUE DEC 23 2014

NOTE: "FAIR" INDICATES FEW OR NO CLOUDS BELOW 12,000 FEET WITH NO
SIGNIFICANT WEATHER AND/OR OBSTRUCTIONS TO VISIBILITY.

NYZ071-072-176-178-NJZ106-104-240300-
NEW YORK CITY METRO AREA


CITY           SKY/WX    TMP DP  RH WIND       PRES   REMARKS
CENTRAL PARK   CLOUDY    46  44  93 VRB3      30.13S FOG
LAGUARDIA APRT DRIZZLE   45  44  97 NE7       30.10F FOG
KENNEDY INTL   DRZL/FOG  47  44  90 NE8       30.11S VSB 1
NEWARK/LIBERTY DRZL/FOG  46  45  96 N8        30.11S VSB 1
BRNX BOT. GARD   N/A     45  45 100 NE3       30.12F
TETERBORO      LGT RAIN  45  45 100 N3        30.10S FOG
$$

NYZ177-179-078>081-240300-
LONG ISLAND NEW YORK

CITY           SKY/WX    TMP DP  RH WIND       PRES   REMARKS
FARMINGDALE    CLOUDY    45  44  97 NE7       30.10R FOG
ISLIP          DRIZZLE   47  45  93 N9        30.08R FOG
SHIRLEY        CLOUDY    47  45  93 N6        30.09S FOG
WESTHAMPTON    CLOUDY    47  45  93 NE13      30.10S FOG
MONTAUK POINT    N/A     48  46  93 NE8       30.10S
$$

NYZ052-065-067-240300-
HUDSON VALLEY

CITY           SKY/WX    TMP DP  RH WIND       PRES   REMARKS
WHITE PLAINS   CLOUDY    46  44  93 NE6       30.09S FOG
NEWBURGH       LGT RAIN  41  41 100 CALM      30.12S FOG
MONTGOMERY     LGT RAIN  43  42  97 NE5       30.11R FOG
POUGHKEEPSIE   CLOUDY    43  41  93 CALM      30.11F FOG
ALBANY         DRZL/FOG  38  36  92 CALM      30.14S VSB 1
$$

NJZ001-105-106-008-010-013-015-019>022-104-240300-
NEW JERSEY

CITY           SKY/WX    TMP DP  RH WIND       PRES   REMARKS
NEWARK/LIBERTY DRZL/FOG  46  45  96 N8        30.11S VSB 1
TETERBORO      LGT RAIN  45  45 100 N3        30.10S FOG
CALDWELL       CLOUDY    45  44  97 NE5       30.11S FOG
MORRISTOWN     CLOUDY    50  48  93 NE3       30.11S FOG
SOMERVILLE     CLOUDY    46  44  93 CALM      30.09S FOG
SUSSEX         CLOUDY    42  42 100 NE5       30.11S FOG
ANDOVER        NOT AVBL
TRENTON        CLOUDY    46  44  93 NE8       30.07F FOG
MILLVILLE      CLOUDY    50  48  93 E7        30.07S
ATLANTIC CITY  CLOUDY    48  47  96 NE8       30.08R FOG
WRIGHTSTOWN    CLOUDY    46  46 100 NE6       30.06F FOG
TOMS RIVER     CLOUDY    46  46 100 NE9       30.09S
BELMAR         CLOUDY    46  41  81 NE7       30.08F
$$

PAZ047>061-062-071-240300-
EASTERN PENNSYLVANIA

CITY           SKY/WX    TMP DP  RH WIND       PRES   REMARKS
PHILADELPHIA   CLOUDY    47  45  93 NE8       30.09S FOG
ALLENTOWN      CLOUDY    44  42  93 E9        30.08F FOG
SCRANTON       CLOUDY    47  41  80 CALM      30.04F
$$

CTZ002-004>006-009-010-012-RIZ004-006-007-MAZ004-011-015-240300-
SOUTHERN NEW ENGLAND
 IN CT

CITY           SKY/WX    TMP DP  RH WIND       PRES   REMARKS
BRADLEY INTL   DRIZZLE   42  39  89 N9        30.15R FOG
HARTFORD       CLOUDY    42  40  92 VRB7      30.16R FOG
DANBURY        CLOUDY    43  40  89 NE8       30.11F FOG
WTRBRY/OXFORD  CLOUDY    43  36  75 E5        30.12R FOG
BRIDGEPORT     CLOUDY    46  44  93 N9        30.11R
MERIDEN        CLOUDY    43  41  93 N7        30.13F FOG
NEW HAVEN      CLOUDY    47  42  83 N12       30.11R
CHESTER        CLOUDY    45  45 100 N7        30.10F FOG
GROTON         CLOUDY    46  46 100 NE12      30.09F FOG
WILLIMANTIC    CLOUDY    46  43  89 NE6       30.13S

 IN RI

CITY           SKY/WX    TMP DP  RH WIND       PRES   REMARKS
PROVIDENCE     LGT RAIN  47  45  93 N9        30.14R FOG
BLOCK ISLAND   CLOUDY    46  43  87 NE14G20   30.10R VSB 1
WESTERLY       CLOUDY    47  46  97 N10       30.11F FOG

 IN MA

CITY           SKY/WX    TMP DP  RH WIND       PRES   REMARKS
BOSTON         DRZL/FOG  46  45  96 NE10      30.18S VSB 3/4
WORCESTER      LGT RAIN  38  38 100 NE10      30.15R VSB 1/4 WCI  31
WESTFIELD      CLOUDY    40  38  93 N8        30.15F FOG     WCI  34
PROVINCETOWN   CLOUDY    46  45  93 NE14      30.15S
NANTUCKET      CLOUDY    51  49  92 E14       30.08S
$$

ANZ330-335-338-340-345-350-353-355-240300-
COASTAL MARINE OBSERVATIONS


STATION/POSITION TIME  SKY/WX   TEMP    WIND        PRES    VSBY  WAVE
                                AIR SEA DIR/SP/G                  HT/PER
                 (UTC)          (F)     (DEG/KT/KT) (MB)    (MI)  (FT/S)
NY HARB ENTRANCE 0200            45 46  360/  8/ 10 1019.2          6/ 8
4S FIRE IS       0200               47                N/A           6/ 8
20S FIRE ISLAND  0100            49 50              1018.0          7/ 8
23SW MTP         0200                                 N/A           7/ 8
HUDSON CANYON    0200            53 54   50/ 10/ 12 1016.7          7/ 7
EXECUTION ROCKS  0200            44 42  120/  2/  4   N/A
WESTERN LI SOUND 0200            44      70/  4/  4   N/A           1/ 4
CENTRAL LI SOUND 0100            44 44   50/ 12/ 14   N/A           1/ 2
EASTERN LI SOUND NOT AVBL
ROBBINS REEF     0200            46                 1018.1
$$


>>>>>>>>>>>>>>>>>>>>>>>>>>>> KEY <<<<<<<<<<<<<<<<<<<<<<<<<<<
>                                                          <
>     SKY/WX - SKY CONDITION/PRESENT WEATHER               <
>     TMP    - TEMPERATURE IN FAHRENHEIT                   <
>     DP     - DEWPOINT IN FAHRENHEIT                      <
>     RH     - RELATIVE HUMIDITY IN PERCENT                <
>     WIND   - DIRECTION AND SPEED IN MPH                  <
>     PRES   - MEAN SEA LEVEL PRESSURE IN INCHES OF HG     <
>     WCI    - WIND CHILL INDEX                            <
>     VSB    - VISIBILITY IN MILES                         <
>     HX     - HEAT INDEX                                  <
>     TC     - TEMPERATURE IN CELSIUS                      <
>     VRB    - VARIABLE WIND DIRECTION                     <
>                                                          <
>>>>>>>>>>>>>>>>>>>>>>>>>>>> KEY <<<<<<<<<<<<<<<<<<<<<<<<<<<





USA.gov is the U.S. government's official web portal to all federal, state and local government web resources and services.